Regional Weather Roundup
Issued by NWS

Home | Current Version | Previous Version | Graphics & Text | Print | Product List | Glossary On
Versions: 1 2 3 4 5 6 7 8 9 10 11 12 13 14 15 16 17 18 19 20 21 22 23 24 25 26 27 28 29 30 31 32 33 34 35 36 37 38 39 40 41 42 43 44 45 46 47 48 49 50
097
ASUS43 KMKX 120459
RWRWI

WISCONSIN REGIONAL WEATHER ROUNDUP
NATIONAL WEATHER SERVICE MILWAUKEE/SULLIVAN WI
1100 PM CST THU FEB 11 2016

NOTE: "FAIR" INDICATES FEW OR NO CLOUDS BELOW 12,000 FEET WITH NO
SIGNIFICANT WEATHER AND/OR OBSTRUCTIONS TO VISIBILITY.

WIZ001-002-006>008-014>016-023>028-120600-
NORTHWEST WISCONSIN

CITY           SKY/WX    TMP DP  RH WIND       PRES   REMARKS
SUPERIOR ARPT  CLOUDY    14   1  56 NW10      30.18S WCI   1
ASHLAND        CLOUDY    12   0  58 W7        30.14F WCI   1
HAYWARD        CLOUDY    12   0  58 W6        30.13F WCI   3
SIREN          CLOUDY    13   6  72 W8        30.19S WCI   2
CUMBERLAND     CLOUDY    12   3  67 W9        30.16S WCI   0
RICE LAKE      CLOUDY    13   4  65 W7        30.19S WCI   3
CHETEK         CLOUDY    13   2  62 W3        30.18S
LADYSMITH      CLOUDY    13   2  62 W7        30.16S WCI   3
EAU CLAIRE     NOT AVBL
MENOMONIE      CLOUDY    16   4  61 SW7       30.20F WCI   6
NEW RICHMOND   FLURRIES  14   8  76 W7        30.20F WCI   4
OSCEOLA        FLURRIES  15  10  80 W7        30.24F WCI   5
$$

WIZ003>005-009-010-017-018-120600-
NORTH CENTRAL WISCONSIN

CITY           SKY/WX    TMP DP  RH WIND       PRES   REMARKS
MANITOWISH WTR CLOUDY     9  -4  57 W10       30.05F WCI  -6
ARBOR VITAE    CLOUDY    11  -2  54 NW8       30.05F WCI   0
WOODRUFF       CLOUDY    11  -2  54 NW8       30.05F WCI   0
RHINELANDER    CLOUDY    10  -3  55 W13       30.06F WCI  -5
EAGLE RIVER    CLOUDY    10  -6  47 W12       30.03F WCI  -4
LAND O LAKES   CLOUDY    10  -3  54 W7        30.03F WCI  -1
PHILLIPS       CLOUDY    10  -2  59 W6        30.09F WCI   0
TOMAHAWK       CLOUDY    10  -2  56 W9        30.09F WCI  -2
MEDFORD        CLOUDY    11   0  60 W8        30.11F WCI  -1
MERRILL        CLOUDY    12  -2  53 W8        30.12S WCI   0
$$

WIZ029-030-035-036-043>047-120600-
CENTRAL WISCONSIN

CITY           SKY/WX    TMP DP  RH WIND       PRES   REMARKS
WAUSAU         CLOUDY    14   0  53 W14       30.11F WCI  -1
MOSINEE        CLOUDY    14   1  57 W3        30.13F
MARSHFIELD     CLOUDY    14  -1  51 W10       30.13F WCI   1
STEVENS POINT  CLOUDY    13  -3  50 W7        30.15F WCI   2
WAUPACA        CLOUDY    17   0  45 W8        30.17F WCI   7
WAUTOMA        NOT AVBL
WISC RAPIDS    CLOUDY    14  -2  49 W9        30.17F WCI   2
CAMP DOUGLAS   NOT AVBL
$$

WIZ011>013-019>022-031-037>040-048>050-120600-
NORTHEAST WISCONSIN

CITY           SKY/WX    TMP DP  RH WIND       PRES   REMARKS
ANTIGO         CLOUDY    10  -3  56 W12G17    30.08F WCI  -4
SHAWANO        CLOUDY    17  -1  43 W7        30.15F WCI   8
OCONTO         CLOUDY    15  -1  48 W9        30.14F WCI   3
STURGEON BAY   CLOUDY    14  -2  48 W14       30.13F WCI  -1
GREEN BAY      CLOUDY    15   0  51 SW7       30.15F WCI   5
MANITOWOC      NOT AVBL
APPLETON       CLOUDY    16  -2  45 SW9       30.13F WCI   4
CLINTONVILLE   CLOUDY    16   0  48 W7        30.15F WCI   6
OSHKOSH        CLOUDY    15  -1  49 W8        30.17F WCI   4
$$

WIZ032>034-041-042-053>061-120600-
SOUTHWEST WISCONSIN

CITY           SKY/WX    TMP DP  RH WIND       PRES   REMARKS
LA CROSSE      CLOUDY    15   1  53 W5        30.24F WCI   8
SPARTA         CLOUDY    14   3  60 W3        30.22F
VIROQUA        CLOUDY    12   3  68 SW6       30.18F WCI   2
BOSCOBEL       CLOUDY    15   3  59 SW3       30.26F
PRAIRIE DU CHI CLOUDY    14   4  63 CALM      30.26F
PLATTEVILLE    CLOUDY    14   4  65 SW5       30.22F WCI   6
$$

WIZ056-057-062-063-064-067-068-120600-
SOUTH CENTRAL WISCONSIN

CITY           SKY/WX    TMP DP  RH WIND       PRES   REMARKS
REEDSBURG      CLOUDY    15   2  57 W8        30.21F WCI   3
BARABOO/DELLS  CLOUDY    14   1  55 W7        30.20F WCI   4
LONE ROCK      NOT AVBL
MINERAL POINT  CLOUDY    16   3  57 W5        30.20F WCI   9
MADISON        CLOUDY    16   0  49 VRB6      30.20F WCI   7
MIDDLETON      CLOUDY    17   3  54 W7        30.21F WCI   8
WATERTOWN      CLOUDY    16   4  59 SW5       30.21F WCI   8
MONROE         CLOUDY    16   5  62 W8        30.21F WCI   5
JANESVILLE     CLOUDY    19   5  53 W3        30.23F
$$

WIZ051-052-058>065-066-070>072-120600-
SOUTHEAST WISCONSIN

CITY           SKY/WX    TMP DP  RH WIND       PRES   REMARKS
MILWAUKEE      CLOUDY    16   1  51 W7        30.22F WCI   6
WAUKESHA       CLOUDY    14   0  52 W8        30.21F WCI   3
MILWAUKEE/TIMM CLOUDY    16  -2  45 W8        30.22F WCI   5
RACINE         CLOUDY    17   4  56 W8        30.24F WCI   7
BURLINGTON     CLOUDY    15   5  65 W3        30.23S
KENOSHA        CLOUDY    17   6  62 W7        30.23F WCI   8
FOND DU LAC    CLOUDY    14   2  58 SW8       30.19F WCI   3
SHEBOYGAN      CLOUDY    16   0  49 W13       30.17F WCI   2
WEST BEND      CLOUDY    14   1  57 CALM      30.19F
JUNEAU         CLOUDY    14   3  62 SW9       30.21F WCI   1
$$

LSZ147-162-120600-
LAKE SUPERIOR

STATION/POSITION TIME  TEMP    WIND        PRES    WAVE
                       AIR SEA DIR/SP/G            HT/PER
                 (UTC) (F)     (DEG/KT/KT) (MB)    (FT/S)
DEVILS ISLAND    0400   16     300/ 26/ 30 1021.4F
PORT WING        0440   16     300/ 15/ 21 1021.0F
SAXON HARBOR     0400   14                 1020.7S
$$

LMZ867-665-643>646-120600-
LAKE MICHIGAN

STATION/POSITION TIME  TEMP    WIND        PRES    WAVE
                       AIR SEA DIR/SP/G            HT/PER
                 (UTC) (F)     (DEG/KT/KT) (MB)    (FT/S)
CHAMBERS ISLAND  0400   16     230/ 10/ 18 1020.0F
ALGOMA LAKESHORE 0311          270/  7/ 13   N/A
KEWAUNEE LAKESHO 0400   15     270/  6/ 10 1020.5F
SHEBOYGAN LAKESH 0400   17     250/ 10/ 13 1024.1F
PORT WASHINGTON  0440   16     260/  6/ 14 1023.7F
MILWAUKEE LAKESH 0410   17     270/ 12/ 14   N/A
KENOSHA   LAKESH 0400   17     250/  7/ 11 1024.0F
$$

TC  - TEMPERATURE IN CELSIUS
VSB - VISIBILITY IN STATUTE MILES
WCI - WIND CHILL INDEX
HX  - HEAT INDEX





USA.gov is the U.S. government's official web portal to all federal, state and local government web resources and services.